This is the latest recevied weather packets stored in our database for station/object JA6YCL-13. If no packets are shown the sender has not sent any weather packets the latest 10 day(s).
| Time | Temp. | Humidity | Pressure | Rain* | Wind** | Luminosity | Snow |
|---|---|---|---|---|---|---|---|
| 1777597584 | 17.22° C | 47% | 1008.8 hPa | 0 mm | - | - | - |
| 1777596771 | 17.22° C | 52% | 1008.6 hPa | 0 mm | - | - | - |
| 1777595881 | 16.67° C | 55% | 1008.4 hPa | 0 mm | - | - | - |
| 1777595006 | 16.67° C | 58% | 1008.3 hPa | 0 mm | - | - | - |
| 1777594113 | 16.67° C | 60% | 1008.1 hPa | 0 mm | - | - | - |
| 1777593251 | 16.11° C | 63% | 1007.9 hPa | 0 mm | - | - | - |
| 1777592525 | 16.11° C | 64% | 1008.2 hPa | 0 mm | - | - | - |
| 1777591681 | 16.11° C | 68% | 1008 hPa | 0 mm | - | - | - |
| 1777590871 | 15.56° C | 69% | 1008.2 hPa | 0 mm | - | - | - |
| 1777589973 | 15.56° C | 71% | 1008.3 hPa | 0 mm | - | - | - |
| 1777589246 | 15.56° C | 73% | 1008.2 hPa | 0 mm | - | - | - |
| 1777588447 | 15.56° C | 76% | 1008.1 hPa | 0 mm | - | - | - |
| 1777587600 | 15° C | 77% | 1008.1 hPa | 0 mm | - | - | - |
| 1777586738 | 15.56° C | 77% | 1008.2 hPa | 0 mm | - | - | - |
| 1777585883 | 15.56° C | 75% | 1008.3 hPa | 0 mm | - | - | - |
| 1777585086 | 15° C | 77% | 1008.3 hPa | 0 mm | - | - | - |
| 1777584341 | 15° C | 80% | 1008.2 hPa | 0 mm | - | - | - |
| 1777583510 | 14.44° C | 83% | 1008 hPa | 0 mm | - | - | - |
| 1777582621 | 14.44° C | 86% | 1007.8 hPa | 0 mm | - | - | - |
| 1777581754 | 14.44° C | 88% | 1007.5 hPa | 0 mm | - | - | - |
| 1777580951 | 14.44° C | 87% | 1007.1 hPa | 0 mm | - | - | - |
| 1777580192 | 14.44° C | 86% | 1006.9 hPa | 0 mm | - | - | - |
| 1777579471 | 15° C | 86% | 1006.7 hPa | 0 mm | - | - | - |
| 1777578751 | 15° C | 86% | 1006.6 hPa | 0 mm | - | - | - |
| 1777577966 | 15° C | 89% | 1006.5 hPa | 0 mm | - | - | - |
* Rain latest hour (hover to see other rain measurements)
** Current wind speed in m/s (hover to see current wind gust speed)